Location: Bourg-d�Oueil
(42.8588°N, 0.4991°E)
Time: 00:50:30
(UTC+00:00)

Cosmos 1378 Rocket - Pass Details

Date: 16 June 2021
Orbit: 601 x 627 km, 82.5° (Epoch: 04 August)

Event Time Altitude Azimuth Distance (km) Brightness Sun altitude
Rises 20:32:49 0° 191° (SSW) 2,847 6.6 -8.6°
Reaches altitude 10° 20:35:01 10° 194° (SSW) 1,952 5.8 -8.9°
Maximum altitude 20:39:20 73° 279° (W) 644 3.8 -9.4°
Drops below altitude 10° 20:43:43 10° 4° (N) 1,984 6.8 -10.0°
Sets 20:45:58 0° 7° (N) 2,899 7.6 -10.3°
